DW0937 Weather Reports


Display with metric or nautical units.
time (UTC)temp
F
wind
direction
speed
MPH
gust
MPH
rain 1hr
in
rain 24hr
in
rain mn
in
humidity
%
barometer
mb
20260506073024 36 325 1.0 4.0 0.00 0.00 0.00 61 1012.9
20260506072526 36 329 1.0 4.0 0.00 0.00 0.00 60 1012.9
20260506072025 36 335 0.0 4.0 0.00 0.00 0.00 60 1012.8
20260506071523 36 355 0.0 3.0 0.00 0.00 0.00 60 1012.9
20260506071025 36 327 1.0 5.0 0.00 0.00 0.00 60 1012.9
20260506070524 36 329 1.0 5.0 0.00 0.00 0.00 59 1013.0
20260506062502 37 305 1.0 3.0 0.00 0.00 0.00 58 1012.9
20260506062220 37 323 1.0 4.0 0.00 0.00 0.00 58 1012.9
20260506061516 37 331 1.0 4.0 0.00 0.00 0.00 57 1012.9
20260506061005 38 355 0.0 3.0 0.00 0.00 0.00 57 1012.9
20260506060504 38 340 0.0 3.0 0.00 0.00 0.00 57 1013.0
20260506050955 39 344 1.0 7.0 0.00 0.00 0.00 54 1012.4
20260506050455 39 313 1.0 5.0 0.00 0.00 0.00 54 1012.3
20260506044955 40 327 1.0 7.0 0.00 0.00 0.00 53 1012.2
20260506044454 40 316 2.0 7.0 0.00 0.00 0.00 53 1012.2
20260506044225 40 315 1.0 5.0 0.00 0.00 0.00 53 1012.2
20260506043456 40 302 1.0 8.0 0.00 0.00 0.00 52 1012.2
20260506042954 40 319 2.0 8.0 0.00 0.00 0.00 52 1012.1
20260506042455 40 292 2.0 7.0 0.00 0.00 0.00 52 1012.1
20260506041955 40 319 1.0 11.0 0.00 0.00 0.00 53 1012.1
20260506041454 40 346 1.0 11.0 0.00 0.00 0.00 52 1012.2
20260506040955 41 325 0.0 4.0 0.00 0.00 0.00 52 1012.1
20260506040454 41 330 1.0 7.0 0.00 0.00 0.00 52 1012.1
20260506035954 41 309 2.0 9.0 0.00 0.00 0.00 51 1012.1
20260506035456 41 329 2.0 9.0 0.00 0.00 0.00 51 1012.1
20260506034951 41 315 1.0 8.0 0.00 0.00 0.00 52 1012.0
20260506034451 41 331 1.0 7.0 0.00 0.00 0.00 52 1012.0
20260506033951 41 342 1.0 6.0 0.00 0.00 0.00 52 1012.0
20260506033450 42 339 1.0 6.0 0.00 0.00 0.00 52 1011.9
20260506033210 42 317 1.0 7.0 0.00 0.00 0.00 51 1011.9
20260506032451 42 331 2.0 7.0 0.00 0.00 0.00 51 1011.9
20260506031951 42 355 2.0 7.0 0.00 0.00 0.00 51 1011.9
20260506031451 42 307 3.0 7.0 0.00 0.00 0.00 50 1011.9
20260506030953 42 335 2.0 8.0 0.00 0.00 0.00 50 1011.8
20260506030448 43 319 3.0 10.0 0.00 0.00 0.00 50 1011.9
20260506025949 43 313 4.0 10.0 0.00 0.00 0.00 50 1011.8
20260506025450 43 317 3.0 10.0 0.00 0.00 0.00 50 1011.7
20260506024948 43 317 1.0 6.0 0.00 0.00 0.00 50 1011.6
20260506024449 44 316 2.0 11.0 0.00 0.00 0.00 49 1011.5
20260506024212 44 322 3.0 11.0 0.00 0.00 0.00 49 1011.4
20260506023444 44 0 3.0 8.0 0.00 0.00 0.00 48 1011.3
20260506022945 44 0 4.0 11.0 0.00 0.00 0.00 48 1011.3
20260506022436 44 342 3.0 11.0 0.00 0.00 0.00 48 1011.2
20260506021934 44 355 2.0 5.0 0.00 0.00 0.00 47 1011.2
20260506021436 44 309 2.0 7.0 0.00 0.00 0.00 46 1011.1
20260506020932 45 337 2.0 7.0 0.00 0.00 0.00 46 1010.9
20260506020654 45 331 3.0 9.0 0.00 0.00 0.00 46 1010.8
20260506015930 45 315 3.0 9.0 0.00 0.00 0.00 46 1010.6
20260506015429 45 0 2.0 9.0 0.00 0.00 0.00 45 1010.6
20260506014928 45 309 2.0 9.0 0.00 0.00 0.00 45 1010.6
20260506014427 45 346 3.0 11.0 0.00 0.00 0.00 45 1010.5
20260506013930 46 298 3.0 11.0 0.00 0.00 0.00 45 1010.5
20260506013429 46 333 3.0 8.0 0.00 0.00 0.00 45 1010.5
20260506012928 46 284 2.0 13.0 0.00 0.00 0.00 44 1010.3
20260506012427 46 305 2.0 13.0 0.00 0.00 0.00 45 1010.3
20260506012147 46 307 2.0 10.0 0.00 0.00 0.00 44 1010.3
20260506011428 47 329 2.0 5.0 0.00 0.00 0.00 44 1010.2
20260506011154 47 298 3.0 5.0 0.00 0.00 0.00 43 1010.2
20260506010429 47 304 3.0 8.0 0.00 0.00 0.00 42 1010.0
20260506005929 47 302 3.0 8.0 0.00 0.00 0.00 42 1010.0
20260506005430 48 316 4.0 7.0 0.00 0.00 0.00 41 1009.9
20260506004928 48 302 3.0 7.0 0.00 0.00 0.00 41 1009.9
20260506004428 48 292 3.0 8.0 0.00 0.00 0.00 41 1009.9
20260506003925 49 15 4.0 8.0 0.00 0.00 0.00 40 1009.8
20260506003647 49 301 4.0 8.0 0.00 0.00 0.00 40 1009.7
20260506002925 49 327 4.0 9.0 0.00 0.00 0.00 39 1009.7
20260506002649 49 296 3.0 9.0 0.00 0.00 0.00 40 1009.6
20260506001924 49 355 3.0 8.0 0.00 0.00 0.00 40 1009.6
20260506001912 49 301 2.0 6.0 0.00 0.00 0.00 40 1009.5
20260506000924 49 329 2.0 6.0 0.00 0.00 0.00 40 1009.5
20260506000423 49 351 3.0 6.0 0.00 0.00 0.00 40 1009.5
20260505235923 49 14 3.0 7.0 0.00 0.00 0.00 39 1009.5
20260505235422 49 310 3.0 9.0 0.00 0.00 0.00 39 1009.5
20260505234933 49 316 3.0 9.0 0.00 0.00 0.00 39 1009.4
20260505234907 49 281 3.0 9.0 0.00 0.00 0.00 39 1009.5
20260505233919 49 300 4.0 11.0 0.00 0.00 0.00 38 1009.4
20260505233418 49 319 4.0 11.0 0.00 0.00 0.00 38 1009.4
20260505233144 49 313 4.0 9.0 0.00 0.00 0.00 38 1009.3
20260505232431 50 317 3.0 7.0 0.00 0.00 0.00 38 1009.3
20260505232419 50 303 3.0 9.0 0.00 0.00 0.00 38 1009.3
20260505231418 50 306 3.0 7.0 0.00 0.00 0.00 38 1009.3
20260505230918 50 317 3.0 6.0 0.00 0.00 0.00 39 1009.3
20260505230645 50 311 4.0 8.0 0.00 0.00 0.00 39 1009.4
20260505225920 50 227 4.0 10.0 0.00 0.00 0.00 39 1009.3
20260505225418 51 331 3.0 10.0 0.00 0.00 0.00 37 1009.3
20260505225141 51 313 3.0 8.0 0.00 0.00 0.00 38 1009.2
20260505224418 51 293 3.0 8.0 0.00 0.00 0.00 38 1009.2
20260505223919 51 294 3.0 9.0 0.00 0.00 0.00 36 1009.3
20260505223418 52 311 3.0 9.0 0.00 0.00 0.00 37 1009.2
20260505222918 51 238 3.0 15.0 0.00 0.00 0.00 40 1009.1
20260505222421 50 295 4.0 15.0 0.00 0.00 0.00 39 1009.2
20260505221917 51 314 4.0 15.0 0.00 0.00 0.00 38 1009.3
20260505221416 51 281 5.0 15.0 0.00 0.00 0.00 38 1009.3
20260505220931 51 305 4.0 10.0 0.00 0.00 0.00 39 1009.3
20260505220416 50 298 4.0 10.0 0.00 0.00 0.00 39 1009.4
20260505215915 50 292 3.0 10.0 0.00 0.00 0.00 39 1009.3
20260505215417 50 282 4.0 8.0 0.00 0.00 0.00 39 1009.4
20260505214917 50 281 4.0 8.0 0.00 0.00 0.00 39 1009.4
20260505214416 50 275 4.0 10.0 0.00 0.00 0.00 38 1009.4
20260505213916 51 309 3.0 10.0 0.00 0.00 0.00 38 1009.4
20260505213637 51 294 3.0 9.0 0.00 0.00 0.00 38 1009.4
20260505213123 51 305 3.0 9.0 0.00 0.00 0.00 38 1009.5
20260505212402 51 305 3.0 13.0 0.00 0.00 0.00 38 1009.4
20260505211904 51 277 4.0 13.0 0.00 0.00 0.00 38 1009.4
20260505211402 51 284 4.0 10.0 0.00 0.00 0.00 37 1009.4
20260505210903 51 24 4.0 10.0 0.00 0.00 0.00 38 1009.5
20260505210414 51 296 4.0 8.0 0.00 0.00 0.00 38 1009.6
20260505205902 52 24 4.0 9.0 0.00 0.00 0.00 38 1009.5
20260505205402 52 273 2.0 9.0 0.00 0.00 0.00 38 1009.5
20260505204903 51 311 3.0 8.0 0.00 0.00 0.00 39 1009.5
20260505204402 51 306 4.0 13.0 0.00 0.00 0.00 39 1009.5
20260505203902 51 310 4.0 13.0 0.00 0.00 0.00 38 1009.5
20260505203402 51 252 4.0 14.0 0.00 0.00 0.00 38 1009.5
20260505202903 51 292 5.0 15.0 0.00 0.00 0.00 37 1009.6
20260505202844 52 299 5.0 15.0 0.00 0.00 0.00 37 1009.6
20260505201902 52 321 4.0 12.0 0.00 0.00 0.00 38 1009.6
20260505201629 52 281 4.0 9.0 0.00 0.00 0.00 37 1009.6
20260505200903 51 319 4.0 8.0 0.00 0.00 0.00 38 1009.6
20260505200402 51 290 4.0 7.0 0.00 0.00 0.00 37 1009.6
20260505195902 51 312 4.0 8.0 0.00 0.00 0.00 37 1009.5
20260505195401 51 346 5.0 10.0 0.00 0.00 0.00 37 1009.6
20260505195136 51 314 5.0 10.0 0.00 0.00 0.00 37 1009.6
20260505194404 51 327 5.0 14.0 0.00 0.00 0.00 36 1009.5
20260505193902 52 304 4.0 14.0 0.00 0.00 0.00 35 1009.5
20260505193623 52 292 3.0 9.0 0.00 0.00 0.00 39 1009.5
20260505192901 51 298 4.0 10.0 0.00 0.00 0.00 37 1009.5
20260505192403 52 259 3.0 10.0 0.00 0.00 0.00 37 1009.5
20260505191901 51 9 4.0 9.0 0.00 0.00 0.00 39 1009.5
20260505191400 50 347 4.0 10.0 0.00 0.00 0.00 37 1009.6
20260505190900 51 313 4.0 10.0 0.00 0.00 0.00 38 1009.7
20260505190400 51 350 4.0 8.0 0.00 0.00 0.00 37 1009.6
20260505185900 51 319 4.0 8.0 0.00 0.00 0.00 37 1009.7
20260505185356 51 333 4.0 9.0 0.00 0.00 0.00 38 1009.7
20260505184854 52 324 4.0 9.0 0.00 0.00 0.00 36 1009.8
20260505184354 53 257 3.0 10.0 0.00 0.00 0.00 37 1009.6
20260505183856 51 273 4.0 12.0 0.00 0.00 0.00 37 1009.6
20260505183357 50 257 3.0 12.0 0.00 0.00 0.00 39 1009.6
20260505183349 50 281 3.0 11.0 0.00 0.00 0.00 37 1009.6
20260505182355 50 245 4.0 14.0 0.00 0.00 0.00 38 1009.7
20260505181850 50 214 4.0 14.0 0.00 0.00 0.00 38 1009.6
20260505181614 50 290 4.0 11.0 0.00 0.00 0.00 39 1009.6
20260505180850 50 297 4.0 12.0 0.00 0.00 0.00 38 1009.6
20260505180355 50 287 4.0 12.0 0.00 0.00 0.00 39 1009.6
20260505180109 49 307 3.0 10.0 0.00 0.00 0.00 38 1009.6
20260505175351 49 301 3.0 10.0 0.00 0.00 0.00 38 1009.6
20260505174848 49 331 4.0 9.0 0.00 0.00 0.00 38 1009.6
20260505174610 49 230 4.0 17.0 0.00 0.00 0.00 38 1009.7
20260505173848 50 293 3.0 17.0 0.00 0.00 0.00 37 1009.7
20260505173612 50 321 2.0 9.0 0.00 0.00 0.00 38 1009.7
20260505172848 50 269 3.0 9.0 0.00 0.00 0.00 38 1009.7
20260505172346 50 313 3.0 8.0 0.00 0.00 0.00 39 1009.6
20260505172102 49 307 3.0 9.0 0.00 0.00 0.00 39 1009.7
20260505171344 49 239 3.0 9.0 0.00 0.00 0.00 39 1009.7
20260505170847 49 30 3.0 8.0 0.00 0.00 0.00 38 1009.7
20260505170346 49 9 3.0 7.0 0.00 0.00 0.00 38 1009.8
20260505165844 49 246 3.0 7.0 0.00 0.00 0.00 39 1009.8
20260505165347 49 302 3.0 8.0 0.00 0.00 0.00 38 1009.9
20260505164843 49 325 3.0 8.0 0.00 0.00 0.00 38 1009.9
20260505164344 49 296 3.0 10.0 0.00 0.00 0.00 39 1009.8
20260505163844 49 240 3.0 10.0 0.00 0.00 0.00 36 1009.8
20260505163345 51 298 3.0 10.0 0.00 0.00 0.00 38 1009.8
20260505162844 50 314 4.0 10.0 0.00 0.00 0.00 38 1009.8
20260505162343 49 19 3.0 12.0 0.00 0.00 0.00 36 1009.8
20260505161844 49 344 4.0 12.0 0.00 0.00 0.00 38 1010.0
20260505161345 48 316 4.0 9.0 0.00 0.00 0.00 41 1009.9
20260505160857 48 309 4.0 8.0 0.00 0.00 0.00 38 1009.8
20260505160609 49 323 4.0 13.0 0.00 0.00 0.00 38 1009.8
20260505153344 48 348 4.0 13.0 0.00 0.00 0.00 40 1009.8
20260505152841 46 311 5.0 13.0 0.00 0.00 0.00 41 1009.8
20260505152342 46 18 5.0 11.0 0.00 0.00 0.00 42 1009.8
20260505151843 46 340 5.0 13.0 0.00 0.00 0.00 42 1009.7
20260505151342 47 5 4.0 13.0 0.00 0.00 0.00 40 1009.7
20260505150843 48 309 2.0 7.0 0.00 0.00 0.00 41 1009.8
20260505150341 47 305 2.0 10.0 0.00 0.00 0.00 44 1009.6
20260505140554 44 296 2.0 7.0 0.00 0.00 0.00 44 1009.3
20260505124829 39 294 3.0 11.0 0.00 0.00 0.00 52 1008.8
20260505124326 39 313 4.0 12.0 0.00 0.00 0.00 53 1008.6
20260505123823 39 323 5.0 12.0 0.00 0.00 0.00 53 1008.6
20260505123323 39 351 4.0 9.0 0.00 0.00 0.00 55 1008.4
20260505123044 38 302 3.0 8.0 0.00 0.00 0.00 55 1008.3
20260505122324 38 329 3.0 8.0 0.00 0.00 0.00 57 1008.2
20260505121823 38 302 3.0 8.0 0.00 0.00 0.00 57 1008.2
20260505121321 38 336 2.0 6.0 0.00 0.00 0.00 59 1008.1
20260505120822 38 350 3.0 8.0 0.00 0.00 0.00 59 1008.1
20260505120322 38 12 3.0 8.0 0.00 0.00 0.00 60 1008.0
20260505115821 38 338 3.0 7.0 0.00 0.00 0.00 61 1007.9
20260505115322 38 300 3.0 9.0 0.00 0.00 0.00 61 1007.8
20260505114820 38 323 3.0 9.0 0.00 0.00 0.00 62 1007.7
20260505114319 38 355 3.0 8.0 0.00 0.00 0.00 62 1007.7
20260505113816 38 341 3.0 9.0 0.00 0.00 0.00 63 1007.6
20260505113310 38 339 3.0 9.0 0.00 0.00 0.00 64 1007.5
20260505112809 38 327 2.0 6.0 0.00 0.00 0.00 65 1007.4
20260505112310 38 346 2.0 7.0 0.00 0.00 0.00 65 1007.4
20260505111809 38 291 2.0 7.0 0.00 0.00 0.00 66 1007.4
20260505111309 38 334 2.0 6.0 0.00 0.00 0.00 65 1007.4
20260505111032 38 344 2.0 6.0 0.00 0.00 0.00 65 1007.3
20260505110748 38 332 1.0 4.0 0.00 0.00 0.00 65 1007.2
20260505101755 39 301 2.0 9.0 0.00 0.00 0.00 64 1007.1
20260505101254 39 350 3.0 12.0 0.00 0.00 0.00 64 1007.1
20260505100753 39 327 4.0 12.0 0.00 0.00 0.00 64 1007.0
20260505100254 39 312 3.0 11.0 0.00 0.00 0.00 63 1006.9
20260505095755 39 322 2.0 5.0 0.00 0.00 0.00 63 1006.9
20260505095253 40 319 3.0 7.0 0.00 0.00 0.00 62 1006.9
20260505094753 40 327 4.0 8.0 0.00 0.00 0.00 62 1006.9
20260505094255 40 325 4.0 8.0 0.00 0.00 0.00 62 1006.8
20260505094245 40 5 3.0 10.0 0.00 0.00 0.00 62 1006.8
20260505093254 40 355 4.0 17.0 0.00 0.00 0.00 62 1006.7
20260505092754 40 323 4.0 17.0 0.00 0.00 0.00 61 1006.7
20260505092248 40 318 3.0 7.0 0.00 0.00 0.00 61 1006.8
20260505092235 40 5 3.0 8.0 0.00 0.00 0.00 61 1006.6
20260505091512 40 9 3.0 8.0 0.00 0.00 0.00 61 1006.6
20260505090744 40 344 3.0 7.0 0.00 0.00 0.00 61 1006.5
20260505090243 40 344 3.0 8.0 0.00 0.00 0.00 60 1006.5
20260505090005 41 355 3.0 8.0 0.00 0.00 0.00 60 1006.2
20260505085505 41 28 3.0 8.0 0.00 0.00 0.00 60 1006.4
20260505085011 41 330 3.0 7.0 0.00 0.00 0.00 59 1006.1
20260505084239 41 312 3.0 7.0 0.00 0.00 0.00 59 1006.1
20260505083740 41 332 3.0 7.0 0.00 0.00 0.00 58 1006.0
20260505083456 41 337 3.0 12.0 0.00 0.00 0.00 58 1006.0
20260505083005 41 316 3.0 12.0 0.00 0.00 0.00 57 1006.0
20260505082233 41 337 3.0 8.0 0.00 0.00 0.00 57 1005.9
20260505081955 41 311 3.0 6.0 0.00 0.00 0.00 56 1005.8
20260505081223 41 313 3.0 6.0 0.00 0.00 0.00 56 1005.7
20260505080723 42 313 3.0 6.0 0.00 0.00 0.00 56 1005.7
20260505080224 42 303 3.0 6.0 0.00 0.00 0.00 55 1005.6
20260505075947 42 311 3.0 8.0 0.00 0.00 0.00 55 1005.5
20260505075223 42 329 3.0 8.0 0.00 0.00 0.00 55 1005.4
20260505074723 42 305 2.0 5.0 0.00 0.00 0.00 55 1005.6
20260505074223 42 309 2.0 4.0 0.00 0.00 0.00 54 1005.6
20260505073726 42 309 3.0 7.0 0.00 0.00 0.00 53 1005.6